FW0518 Weather Reports


Display with metric or nautical units.
time (UTC)temp
F
wind
direction
speed
MPH
gust
MPH
rain 1hr
in
rain 24hr
in
rain mn
in
humidity
%
barometer
mb
20260502123027 39 283 1.0 3.0 0.00 0.00 0.00 80 1022.7
20260502121526 38 291 0.0 2.0 0.00 0.00 0.00 79 1022.4
20260502114520 38 306 0.0 3.0 0.00 0.00 0.00 79 1022.0
20260502113019 38 278 0.0 3.0 0.00 0.00 0.00 79 1021.9
20260502111515 38 278 0.0 0.0 0.00 0.00 0.00 78 1021.7
20260502110019 38 278 0.0 1.0 0.00 0.00 0.00 77 1021.6
20260502104533 38 278 0.0 1.0 0.00 0.00 0.00 76 1021.6
20260502103010 39 278 0.0 3.0 0.00 0.00 0.00 76 1021.5
20260502101506 39 281 0.0 2.0 0.00 0.00 0.00 76 1021.3
20260502091524 41 290 1.0 3.0 0.00 0.00 0.00 71 1021.2
20260502070040 44 321 0.0 0.0 0.00 0.00 0.00 67 1020.9
20260502064541 44 321 0.0 0.0 0.00 0.00 0.00 66 1021.0
20260502063036 45 321 0.0 1.0 0.00 0.00 0.00 66 1020.9
20260502061533 46 321 0.0 2.0 0.00 0.00 0.00 65 1020.9
20260502060032 46 321 0.0 1.0 0.00 0.00 0.00 63 1020.8
20260502054530 46 321 0.0 3.0 0.00 0.00 0.00 62 1020.8
20260502053028 47 321 0.0 2.0 0.00 0.00 0.00 63 1020.8
20260502051546 47 322 0.0 1.0 0.00 0.00 0.00 63 1020.7
20260502050023 47 321 0.0 2.0 0.00 0.00 0.00 64 1020.6
20260502044522 48 335 0.0 3.0 0.00 0.00 0.00 64 1020.5
20260502043022 48 330 0.0 2.0 0.00 0.00 0.00 67 1020.3
20260502041522 49 331 0.0 3.0 0.00 0.00 0.00 66 1020.3
20260502040021 49 329 0.0 3.0 0.00 0.00 0.00 65 1020.3
20260502034535 50 321 0.0 2.0 0.00 0.00 0.00 65 1020.2
20260502033025 51 321 0.0 1.0 0.00 0.00 0.00 63 1020.1
20260502031519 52 321 0.0 1.0 0.00 0.00 0.00 62 1019.9
20260502030018 53 321 0.0 1.0 0.00 0.00 0.00 59 1019.7
20260502024517 53 321 0.0 3.0 0.00 0.00 0.00 59 1019.4
20260502023017 53 320 0.0 1.0 0.00 0.00 0.00 57 1019.0
20260502021517 54 320 0.0 0.0 0.00 0.00 0.00 55 1018.6
20260502020017 55 320 0.0 2.0 0.00 0.00 0.00 54 1018.4
20260502014523 56 320 0.0 2.0 0.00 0.00 0.00 54 1018.2
20260502013014 57 321 0.0 5.0 0.00 0.00 0.00 51 1018.0
20260502011521 57 333 1.0 4.0 0.00 0.00 0.00 50 1017.9
20260502010017 59 324 2.0 5.0 0.00 0.00 0.00 47 1017.7
20260502004513 60 300 3.0 7.0 0.00 0.00 0.00 43 1017.5
20260502003018 62 312 5.0 11.0 0.00 0.00 0.00 42 1017.3
20260502001512 63 312 4.0 9.0 0.00 0.00 0.00 40 1017.0
20260502000011 63 287 4.0 9.0 0.00 0.00 0.00 40 1016.9
20260501234510 64 317 5.0 11.0 0.00 0.00 0.00 38 1016.9
20260501233010 64 330 4.0 9.0 0.00 0.00 0.00 40 1016.9
20260501231521 63 283 4.0 12.0 0.00 0.00 0.00 42 1017.0
20260501230010 64 301 4.0 12.0 0.00 0.00 0.00 40 1016.9
20260501224506 64 307 6.0 16.0 0.00 0.00 0.00 37 1016.9
20260501223004 64 1 4.0 11.0 0.00 0.00 0.00 45 1017.0
20260501221504 62 325 4.0 8.0 0.00 0.00 0.00 43 1017.0
20260501220006 62 333 4.0 11.0 0.00 0.00 0.00 44 1017.1
20260501214503 63 300 8.0 15.0 0.00 0.00 0.00 40 1017.2
20260501213104 63 339 4.0 13.0 0.00 0.00 0.00 43 1017.4
20260501211557 63 359 4.0 11.0 0.00 0.00 0.00 43 1017.6
20260501210056 65 298 5.0 11.0 0.00 0.00 0.00 40 1017.8
20260501204553 63 335 6.0 11.0 0.00 0.00 0.00 40 1018.2
20260501203051 64 334 5.0 11.0 0.00 0.00 0.00 44 1018.4
20260501201551 65 324 6.0 13.0 0.00 0.00 0.00 41 1018.5
20260501200047 63 277 5.0 12.0 0.00 0.00 0.00 44 1018.6
20260501194556 63 258 6.0 14.0 0.00 0.00 0.00 41 1018.7
20260501193044 63 292 7.0 14.0 0.00 0.00 0.00 44 1018.8
20260501191544 62 301 6.0 13.0 0.00 0.00 0.00 41 1019.0
20260501190043 64 275 8.0 13.0 0.00 0.00 0.00 38 1018.9
20260501184641 63 255 7.0 17.0 0.00 0.00 0.00 41 1018.9
20260501183039 63 279 5.0 13.0 0.00 0.00 0.00 42 1019.1
20260501181540 63 281 5.0 12.0 0.00 0.00 0.00 40 1019.2
20260501180040 63 261 6.0 13.0 0.00 0.00 0.00 38 1019.4
20260501174533 62 286 4.0 12.0 0.00 0.00 0.00 42 1019.6
20260501173036 61 268 2.0 12.0 0.00 0.00 0.00 39 1019.7
20260501171532 61 248 2.0 9.0 0.00 0.00 0.00 42 1019.8
20260501170026 60 342 4.0 9.0 0.00 0.00 0.00 41 1020.0
20260501164533 60 359 5.0 9.0 0.00 0.00 0.00 43 1019.9
20260501163027 59 230 7.0 10.0 0.00 0.00 0.00 45 1020.1
20260501161520 58 228 6.0 11.0 0.00 0.00 0.00 47 1020.0
20260501160030 58 236 5.0 11.0 0.00 0.00 0.00 49 1020.1
20260501154516 57 247 7.0 10.0 0.00 0.00 0.00 50 1020.1
20260501153014 57 233 2.0 7.0 0.00 0.00 0.00 53 1019.8
20260501151511 56 215 4.0 9.0 0.00 0.00 0.00 51 1019.8
20260501150011 56 186 2.0 9.0 0.00 0.00 0.00 58 1019.8
20260501144508 54 200 4.0 8.0 0.00 0.00 0.00 56 1019.8
20260501143004 53 214 4.0 9.0 0.00 0.00 0.00 61 1019.9
20260501141621 52 180 2.0 8.0 0.00 0.00 0.00 64 1019.9
20260501140056 51 222 3.0 7.0 0.00 0.00 0.00 70 1019.8
20260501134553 50 189 4.0 6.0 0.00 0.00 0.00 72 1019.9